Wind_Speed
17 17 18 19 20 22 24 25 25 24 23 21 20 20 20 21 20 18 17 16 16 15 14 13 12 10 10 10 10 10 9 8 7 7 6 6 6 7 8 9 11 11 10 9 8 9 11 14 16 17 17 19 20 19 19 19 20 23 25 27 27 26 26 26 26 25 25 25 26 27 27 26 26 27 30 30 30 29 28 26 24 23 22 20 20 21 21 20
17 18 19 20 21 23 25 25 25 24 23 21 21 21 21 21 20 18 16 16 15 15 14 13 12 11 10 10 11 11 10 8 7 7 6 6 5 6 7 8 9 10 10 9 8 8 9 12 14 15 16 17 18 18 18 18 18 21 24 27 28 27 26 26 25 24 24 23 23 25 26 26 26 27 28 28 28 27 27 26 25 25 24 22 21 21 22 22
18 18 19 20 22 24 25 25 25 24 23 22 21 21 21 21 20 18 16 15 15 14 14 13 12 11 11 11 11 11 10 9 7 7 6 5 5 5 6 6 7 8 9 9 9 8 8 9 11 13 14 15 16 17 17 17 17 18 21 26 28 28 26 25 24 23 22 21 21 23 25 26 25 26 26 26 26 26 25 24 24 25 25 25 23 22 23 24
18 18 19 21 23 25 25 26 25 25 23 22 22 21 22 22 20 19 17 15 14 14 14 13 12 12 11 11 12 11 10 9 7 6 6 5 4 5 6 6 6 6 7 8 9 8 8 8 8 9 11 13 15 15 16 16 16 16 17 21 26 27 25 24 23 22 22 21 21 23 25 26 26 26 25 25 25 24 24 23 23 24 24 23 24 23 23 24
18 18 20 22 24 25 26 26 26 25 23 22 22 22 22 22 21 19 17 16 14 14 13 12 12 12 11 12 12 11 10 9 8 7 5 5 4 4 5 6 6 6 6 6 7 8 8 8 6 7 9 11 12 14 15 15 15 14 14 16 21 24 21 20 21 21 21 22 22 23 24 26 26 27 26 26 25 24 23 22 22 24 24 23 23 23 23 22
18 19 21 23 24 25 26 26 26 25 23 22 22 22 22 22 21 20 18 16 15 14 13 12 11 11 12 12 13 12 11 10 9 7 5 4 4 3 4 6 6 5 5 5 6 7 7 7 7 6 7 8 9 10 11 13 14 13 13 13 16 22 20 17 18 18 20 21 22 22 22 24 24 25 25 26 26 25 24 23 24 25 26 25 23 22 22 22
19 20 22 23 25 25 26 26 26 25 24 22 22 22 22 22 21 20 19 17 15 14 13 12 12 12 12 12 13 13 12 11 9 8 6 5 4 3 3 5 6 5 5 5 5 5 6 6 6 6 6 7 7 6 7 9 11 10 10 11 12 18 20 17 16 17 18 19 19 20 20 21 22 22 22 23 24 24 24 24 23 23 23 23 22 21 20 20
20 21 23 24 25 25 26 26 26 26 24 22 22 22 22 22 21 20 19 17 15 14 13 12 12 13 13 13 13 13 13 11 10 9 7 5 4 3 2 3 5 5 5 5 4 5 5 5 5 5 5 6 6 5 4 5 7 7 8 9 10 14 17 15 14 14 15 15 15 16 17 18 19 19 19 19 20 20 21 20 19 18 18 19 19 18 17 16
21 22 24 24 25 26 26 27 27 26 25 23 22 22 22 22 21 21 19 18 17 15 14 14 14 14 14 14 14 14 13 12 11 10 8 7 5 3 2 2 3 4 4 4 4 4 4 4 4 4 4 4 5 5 4 4 5 5 7 8 8 11 13 13 11 10 11 13 13 12 13 14 15 15 15 15 16 16 16 16 15 15 15 15 15 16 15 14
22 23 24 25 25 26 26 27 27 27 25 23 22 22 22 22 22 21 20 19 18 17 16 16 16 15 15 14 14 14 14 14 12 11 10 8 6 5 3 2 1 2 2 3 4 3 3 4 4 4 4 3 4 4 4 4 5 5 6 6 6 8 10 10 8 7 8 11 12 11 11 11 11 12 13 13 13 13 13 13 13 13 13 13 13 13 13 13
23 24 25 25 25 26 26 27 28 27 26 25 23 22 22 22 22 22 21 20 19 18 18 18 17 16 15 15 15 15 15 14 14 13 12 10 9 7 5 4 2 1 0 2 2 3 3 4 4 4 4 4 3 3 3 4 5 6 6 3 2 5 8 8 6 5 6 8 10 9 9 9 9 10 10 10 10 10 10 10 11 11 11 10 10 10 11 11
24 25 25 25 25 26 26 27 28 28 27 26 24 23 23 22 22 22 22 21 20 20 19 19 18 17 16 15 15 14 15 15 15 14 13 12 11 10 8 7 5 3 2 1 1 2 2 3 3 3 3 3 3 3 3 3 4 6 4 1 2 4 5 5 5 5 5 6 7 7 7 7 8 8 7 7 7 7 7 8 8 8 8 8 8 8 8 9
24 25 25 26 26 25 26 27 28 28 28 27 26 24 23 23 23 22 22 22 21 21 20 19 18 17 16 15 15 15 15 16 16 16 15 14 13 12 11 9 8 7 5 4 3 2 2 2 2 2 3 3 2 3 2 2 3 4 2 1 3 5 5 4 2 2 3 5 6 6 6 6 6 6 6 6 6 5 6 6 6 6 6 6 6 6 6 7
25 25 26 26 25 25 26 27 27 28 28 28 27 25 24 23 23 23 23 23 22 22 21 20 19 19 17 16 15 16 16 16 17 17 17 16 15 14 13 12 11 9 8 8 7 5 4 3 3 3 3 3 3 2 1 1 2 2 0 1 3 4 4 3 2 0 1 3 4 4 4 4 5 5 5 4 4 4 5 5 4 4 4 4 4 4 4 5
25 25 26 26 26 25 26 26 27 28 28 28 27 26 25 24 24 24 24 24 23 23 22 22 22 20 18 17 17 17 17 17 17 18 18 17 17 16 15 14 13 12 11 11 10 8 7 6 5 5 5 5 5 4 2 2 1 0 1 2 3 3 2 1 0 1 1 2 3 3 2 2 2 2 3 3 4 4 4 4 3 3 3 2 2 3 3 4
25 25 26 26 26 26 26 26 27 28 28 28 28 27 26 25 25 25 25 25 24 24 24 24 24 21 19 18 18 18 18 18 18 19 19 19 18 17 17 16 15 14 13 12 12 10 10 9 8 8 7 6 7 6 6 4 3 3 4 3 2 2 1 1 1 1 1 2 3 3 2 2 2 2 3 4 5 5 5 5 5 5 5 5 5 4 4 5
25 25 25 26 26 25 26 26 27 28 28 28 28 28 27 26 25 25 25 25 25 25 25 25 24 22 20 20 20 19 19 19 19 19 19 19 19 19 18 18 17 16 15 14 13 12 12 12 11 10 9 8 8 8 7 6 5 6 7 6 4 3 2 1 2 3 3 3 3 3 2 2 3 4 4 5 6 6 6 6 6 6 6 6 6 6 6 7
24 25 25 25 25 25 25 26 27 28 28 29 29 28 28 27 26 26 26 26 26 26 26 26 25 23 22 22 21 20 20 20 19 19 19 19 19 19 20 19 19 18 17 16 15 14 14 14 12 12 11 10 10 10 10 8 8 9 8 7 6 5 5 3 3 4 6 6 6 5 3 3 4 5 5 6 6 6 6 7 7 7 7 6 6 7 8 9
24 25 25 25 25 25 25 26 26 27 28 29 29 29 29 28 27 27 26 27 27 28 29 28 27 25 24 24 23 23 22 21 20 19 19 19 20 20 20 20 20 20 19 18 18 17 16 15 14 13 13 13 12 12 13 12 11 11 10 9 8 8 7 7 6 7 8 10 11 9 6 6 7 7 7 7 7 6 6 7 9 10 10 9 8 9 10 11
25 25 25 26 25 25 25 26 26 27 28 29 30 30 30 30 29 28 27 27 28 29 29 29 28 27 26 25 25 25 23 22 21 21 20 20 20 21 21 21 21 21 21 21 21 19 18 17 15 14 15 15 15 15 15 15 14 14 12 11 10 10 10 9 10 11 12 13 13 13 10 9 9 10 9 10 10 10 8 8 10 12 13 13 13 13 14 15
26 26 26 26 26 26 26 26 27 27 28 30 31 31 32 31 31 30 29 28 28 29 30 30 29 28 27 27 27 26 25 24 23 23 22 22 22 21 21 22 22 22 23 23 22 21 20 19 17 16 17 17 17 17 17 17 17 16 14 13 13 13 13 13 13 14 16 15 15 15 13 11 12 13 13 13 13 13 12 12 13 14 16 17 16 16 16 17
27 27 27 27 27 27 27 27 28 28 29 29 30 32 32 33 33 32 31 30 30 30 31 30 29 29 29 29 28 27 27 26 25 25 24 24 24 23 23 23 23 24 24 24 24 23 23 21 20 20 20 21 20 20 20 20 20 19 17 16 16 16 16 16 16 17 17 16 16 16 15 14 15 16 18 18 16 15 15 15 16 17 18 18 18 19 19 20
27 28 28 28 28 27 27 28 28 29 29 29 30 31 32 33 34 34 33 33 32 32 32 30 30 31 31 30 29 29 28 28 27 27 26 26 26 26 25 25 25 25 25 25 25 25 25 24 24 24 23 23 22 22 22 22 22 21 19 18 19 19 20 19 18 18 18 18 18 18 17 17 18 19 20 21 22 21 19 19 19 20 20 20 21 21 22 23
28 28 29 28 28 28 28 29 29 29 29 29 30 31 32 33 34 35 35 35 34 34 33 32 32 31 31 30 30 30 30 30 29 29 28 28 28 28 28 27 27 27 26 26 27 27 27 27 27 27 26 25 25 25 25 25 24 23 22 22 22 22 23 22 19 19 20 20 20 20 20 20 21 23 23 23 24 25 23 24 25 24 23 23 24 24 24 25
29 29 30 29 29 29 29 30 30 29 29 29 29 30 31 32 33 34 35 36 36 36 35 35 33 33 33 32 31 31 32 32 31 31 31 30 30 30 30 29 28 28 28 28 29 29 29 29 29 28 28 28 28 27 27 27 27 26 25 25 24 24 24 24 23 22 23 23 23 24 24 24 25 27 27 26 27 28 27 28 29 28 27 28 29 28 28 28
30 31 31 31 31 30 30 30 30 30 29 29 29 29 30 31 32 33 34 35 36 36 37 36 36 36 36 34 34 35 35 35 34 33 33 33 32 32 31 31 30 30 30 30 31 31 30 30 31 31 31 31 31 30 29 29 30 29 28 27 27 28 27 27 27 27 27 27 27 28 28 28 30 31 30 29 30 31 31 31 31 31 31 32 32 32 32 32
31 32 32 32 32 32 32 31 31 31 30 30 30 29 30 30 31 32 33 34 35 36 37 37 38 38 37 37 38 39 39 39 38 37 37 36 35 34 33 32 32 31 31 32 34 33 31 32 33 33 32 33 34 33 32 31 32 33 31 30 31 32 31 30 30 31 31 31 31 31 31 31 33 35 35 34 34 34 33 33 33 34 34 35 35 35 36 36
32 32 33 33 33 33 33 33 33 32 32 32 31 31 31 30 31 31 31 32 33 35 36 37 38 38 39 40 41 41 41 41 40 39 39 38 36 36 35 35 33 33 34 36 36 35 34 34 34 34 34 36 37 36 34 33 35 35 34 34 35 35 35 34 34 34 34 35 36 36 34 34 36 38 39 37 36 36 35 35 35 36 37 37 37 38 38 39
32 33 33 33 34 34 34 34 34 34 34 34 33 33 32 32 31 31 31 32 33 34 35 36 37 38 40 41 42 42 42 41 41 41 41 39 38 38 38 37 36 35 37 39 39 37 37 36 35 36 37 38 39 38 36 36 37 38 38 38 39 38 38 37 38 38 37 38 41 39 38 38 39 42 43 40 39 38 37 37 38 39 39 40 40 41 41 42
32 33 33 34 34 34 35 35 35 36 36 36 35 35 34 33 33 32 32 33 33 33 34 34 36 38 40 41 41 41 41 41 41 41 41 40 40 40 39 38 37 37 38 40 41 40 39 39 37 38 39 40 41 40 40 40 40 40 40 41 42 41 41 41 41 41 41 41 43 43 41 41 43 46 45 43 42 41 40 41 41 42 42 43 43 43 44 44
33 34 34 34 35 35 35 36 36 36 36 36 36 36 36 35 34 34 35 35 34 34 34 34 36 38 40 40 40 41 42 41 41 42 41 41 41 40 40 39 38 38 39 41 43 42 42 42 41 40 41 42 43 44 43 43 43 43 43 44 44 43 43 43 43 43 43 44 46 46 45 45 47 49 47 45 44 44 44 44 44 44 45 46 46 46 47 47
34 34 34 35 35 35 36 36 36 36 36 36 36 36 36 35 35 36 37 37 37 36 36 36 37 39 39 39 39 41 41 40 41 42 42 42 42 40 40 39 39 39 40 42 44 44 44 45 45 44 44 45 46 47 46 46 46 46 47 47 45 45 45 45 45 45 45 47 48 48 48 49 50 50 49 48 46 47 47 47 47 47 48 48 49 49 50 50
35 35 35 35 35 35 35 36 36 36 36 36 36 36 35 35 35 37 38 38 39 39 39 39 40 40 40 39 39 40 40 40 41 42 42 42 42 40 40 41 41 41 42 43 45 46 46 47 46 46 46 47 48 50 50 50 50 50 50 49 48 48 48 48 48 48 48 50 50 50 50 51 52 51 50 50 50 50 50 50 50 50 51 52 52 53 53 53
36 35 36 36 36 35 36 36 36 36 36 36 35 35 34 35 36 37 38 38 39 40 40 41 42 42 41 41 41 41 40 40 41 41 42 42 41 40 40 42 42 43 45 45 46 46 48 49 47 46 47 48 50 53 53 53 53 53 53 52 52 52 52 51 52 51 51 52 52 52 53 54 54 53 52 52 54 55 54 53 53 53 54 55 56 56 55 56
37 37 37 38 37 36 36 36 36 36 36 36 35 35 34 35 37 37 38 38 40 40 40 41 42 43 42 42 42 42 42 42 42 43 43 43 42 41 41 42 43 44 45 46 46 47 49 50 49 48 48 49 51 53 54 55 55 55 55 55 56 55 54 55 55 54 54 54 54 55 56 56 56 54 53 54 57 58 58 57 56 56 57 58 58 58 58 57
39 39 39 39 38 38 38 38 37 37 37 37 36 35 36 36 37 38 38 39 39 40 40 40 41 42 42 42 43 43 43 43 44 44 45 45 44 43 43 43 44 44 45 45 46 47 49 50 50 49 49 50 51 52 54 55 55 55 55 56 57 56 56 57 56 56 56 56 56 57 58 58 57 56 55 57 59 60 59 59 58 58 59 60 60 59 59 59
41 41 42 41 40 40 40 39 39 39 39 38 37 36 37 37 38 38 39 39 40 41 41 41 41 41 42 42 43 43 43 43 44 45 46 46 45 45 45 44 45 46 46 46 47 47 49 51 51 51 51 51 52 53 54 55 55 56 56 56 57 57 57 57 57 57 57 57 57 57 58 59 59 58 57 58 60 60 60 59 59 59 59 60 61 60 60 60
43 43 44 43 41 42 42 41 41 41 41 40 39 38 38 38 39 40 41 41 42 42 42 42 42 42 43 43 44 44 43 44 44 45 46 46 45 45 45 45 45 46 47 48 48 49 50 52 53 52 53 54 54 54 55 55 55 56 57 57 57 58 58 58 58 58 58 58 57 57 57 58 58 58 59 60 61 61 61 60 60 60 61 61 62 62 63 62
43 44 45 44 43 44 44 43 43 43 43 42 41 41 40 41 41 43 44 44 44 44 44 44 43 43 44 44 44 45 44 45 45 45 45 46 45 45 46 46 46 46 47 48 49 50 51 52 54 54 55 56 57 57 57 56 56 57 57 58 58 59 59 59 60 59 58 58 58 57 57 57 58 59 60 61 61 62 62 62 62 63 63 63 64 64 65 65
44 44 46 45 44 45 45 45 45 45 45 44 43 43 43 44 44 46 47 47 47 47 46 46 45 45 45 45 46 46 46 46 46 46 46 46 46 47 47 47 48 49 49 50 51 52 52 53 54 55 56 58 59 59 59 59 59 59 60 60 61 61 61 61 62 61 61 60 60 59 58 57 59 61 62 63 64 64 64 65 65 65 65 65 66 66 67 67
44 45 46 46 46 46 46 47 47 46 46 45 44 44 45 45 46 47 48 48 49 48 48 47 47 46 46 47 47 48 48 48 49 49 49 48 48 48 49 49 50 51 52 53 53 53 54 54 55 56 58 59 59 60 60 61 61 61 61 62 62 62 63 63 64 63 63 63 62 62 59 58 61 63 63 64 66 66 66 67 67 67 67 67 67 68 68 69
45 46 47 48 47 47 47 47 47 47 47 46 45 45 45 46 46 47 47 48 48 48 48 48 48 47 48 48 49 50 50 51 51 51 50 50 50 49 49 50 50 51 52 53 53 53 53 54 54 55 56 58 59 59 59 61 61 61 62 63 63 63 64 65 65 64 65 64 64 65 61 58 60 63 65 65 66 67 67 67 67 67 67 67 66 67 67 67
46 47 48 48 48 48 48 48 48 48 49 48 47 46 46 47 47 48 48 49 49 50 50 50 50 50 50 50 51 51 52 52 51 50 50 49 49 48 48 48 49 49 50 50 50 50 50 50 50 51 52 54 56 56 56 58 59 60 61 62 63 64 64 65 65 65 65 64 64 65 60 56 58 61 63 65 64 64 65 63 63 64 64 64 64 64 64 64
50 49 50 50 49 49 48 48 48 49 49 48 48 47 46 47 47 48 48 49 50 51 51 51 51 51 50 50 50 51 51 51 50 49 48 48 48 48 48 48 49 49 49 49 48 48 49 48 48 48 49 51 53 54 54 55 56 57 58 59 61 62 62 63 63 63 62 61 62 61 55 54 57 59 60 62 62 61 61 61 61 62 62 63 63 63 63 62
53 52 52 53 52 51 50 49 49 50 50 49 48 47 47 46 46 46 47 48 49 49 50 50 50 50 49 48 48 49 49 50 50 49 49 49 48 48 49 49 49 49 49 49 49 49 49 49 48 49 49 50 52 53 53 54 55 56 56 57 59 60 61 62 63 63 62 61 62 59 55 56 60 60 60 61 62 62 62 63 64 64 64 64 65 65 64 64
57 56 55 56 56 55 53 52 52 52 52 52 51 49 49 48 48 47 47 47 48 49 49 49 49 49 49 49 49 49 50 51 51 51 51 51 51 51 51 51 51 51 51 51 51 51 51 51 50 51 51 51 52 53 54 55 56 56 57 59 60 61 61 62 63 63 64 66 63 60 61 63 63 63 64 64 64 65 66 67 68 68 68 68 68 69 69 69
60 59 58 58 59 58 57 56 56 55 55 55 54 53 52 52 51 51 50 50 50 50 51 51 51 51 52 52 52 52 53 54 54 54 54 55 54 54 55 55 54 54 54 55 55 56 56 55 55 55 55 55 56 56 57 58 58 59 60 61 63 65 65 65 66 66 69 70 64 62 67 69 66 67 68 68 69 70 70 71 71 72 73 73 73 73 74 74
63 63 62 61 61 61 61 59 59 58 58 58 57 56 56 56 56 55 54 54 54 54 54 54 55 55 55 55 56 56 56 57 58 58 58 58 58 58 58 58 58 57 58 59 59 60 61 60 60 60 60 60 60 61 62 62 62 62 63 64 66 68 69 70 70 71 73 73 68 67 71 72 70 71 72 71 72 73 74 74 75 75 76 76 77 77 78 79
67 66 66 65 64 64 64 63 62 61 61 60 59 59 59 59 59 59 58 57 57 57 57 58 58 58 59 59 59 59 59 60 60 61 61 62 61 61 61 60 60 60 61 62 63 64 65 65 65 64 64 63 64 65 65 65 65 65 66 67 68 70 72 73 73 74 76 76 73 73 74 75 75 75 75 75 76 77 77 78 78 78 79 79 80 80 81 82
70 70 69 68 68 67 66 66 66 65 64 63 62 62 62 62 62 62 61 61 61 60 60 60 61 61 61 62 62 62 62 62 63 63 64 64 64 64 64 63 63 63 64 65 66 67 68 69 69 69 67 66 67 69 69 69 68 68 68 69 71 73 75 75 75 76 78 78 78 78 77 77 79 79 78 79 79 80 80 81 81 82 82 82 83 83 83 84
73 72 72 72 71 70 70 70 69 69 68 67 66 66 66 66 65 65 65 65 64 64 63 64 64 64 64 65 65 65 65 65 66 66 66 67 67 67 67 66 66 66 67 68 69 70 71 72 72 72 71 69 70 73 73 73 72 70 70 72 74 76 77 77 78 79 80 81 81 81 80 80 81 82 82 82 82 82 83 84 84 85 85 86 87 87 88 88
77 76 76 76 75 74 74 74 73 72 72 71 71 70 70 70 69 69 69 69 68 68 68 68 68 68 68 68 69 69 69 69 69 69 69 70 70 71 71 70 70 70 71 72 73 73 75 75 75 76 74 72 73 76 77 77 75 72 74 76 78 79 80 80 81 81 82 83 83 83 83 83 84 84 84 85 85 85 86 87 87 88 88 89 90 91 92 92
Wind_Direction
206 201 195 192 190 187 186 185 184 182 181 185 188 188 186 184 183 182 181 177 170 165 161 158 156 154 152 150 149 149 145 141 131 116 102 85 69 58 53 54 58 61 62 60 57 53 54 57 58 63 69 72 75 79 81 81 81 82 82 80 77 73 71 72 72 71 72 74 77 77 76 76 78 80 82 82 82 82 83 87 91 93 95 101 106 108 109 109
203 198 193 191 189 186 186 185 184 183 184 187 189 189 187 186 185 184 183 179 173 168 164 161 160 159 159 157 156 155 151 149 140 125 111 93 75 59 52 51 56 60 60 60 60 56 54 56 57 59 65 71 75 78 80 79 76 79 85 87 85 82 79 77 74 72 71 71 73 75 75 75 75 76 78 81 82 82 81 83 88 91 92 95 100 106 108 107
200 195 191 189 188 187 186 185 185 185 187 189 190 190 188 187 187 186 185 182 177 173 169 166 165 164 165 166 164 161 159 157 149 136 120 103 82 64 54 51 53 57 58 59 60 59 57 59 59 60 62 68 74 76 79 80 75 71 79 87 89 87 84 81 78 73 70 69 71 74 77 77 77 78 79 81 82 83 84 83 85 86 88 90 93 98 102 104
198 194 190 188 187 187 187 186 186 187 189 191 191 191 190 189 189 189 187 185 181 177 174 171 170 169 170 174 172 168 166 165 160 148 133 116 93 70 58 53 52 54 57 61 61 61 63 66 64 61 62 66 72 74 76 78 77 72 72 83 89 89 85 82 81 77 73 71 72 75 78 78 78 79 80 81 82 84 88 92 94 93 92 93 93 94 96 100
197 192 189 188 187 188 188 187 188 190 192 193 192 193 192 192 191 191 190 189 185 181 179 177 176 174 177 182 179 176 175 173 172 163 149 133 110 80 64 57 54 51 55 62 66 66 66 72 71 64 65 69 73 74 74 74 75 73 70 76 86 91 88 83 82 80 77 74 73 76 78 78 78 79 80 80 80 80 84 90 96 98 97 95 95 96 97 97
195 192 188 187 188 189 189 188 190 192 194 195 194 194 195 195 194 194 194 192 189 186 183 182 184 183 185 189 186 184 184 183 181 176 165 151 132 101 71 61 56 52 53 57 66 72 71 74 76 74 71 74 78 77 73 71 71 70 69 69 78 89 92 87 83 80 76 73 72 74 75 74 73 73 76 78 79 78 79 82 87 89 88 86 86 90 94 95
194 190 188 188 189 190 190 190 192 194 197 197 196 196 196 197 197 197 196 195 193 191 188 188 193 192 192 196 195 192 193 192 190 187 182 171 157 131 89 68 60 53 54 54 58 70 75 76 76 79 84 87 92 92 80 73 76 76 73 67 68 83 92 90 85 80 73 69 70 72 73 71 69 66 67 71 77 80 81 82 84 81 78 77 78 80 84 89
193 190 188 188 190 192 192 192 194 197 199 200 199 199 198 198 199 200 199 199 198 196 194 196 201 200 198 201 202 200 201 201 199 197 195 190 180 163 129 85 69 56 54 57 56 59 68 75 74 75 81 91 99 106 101 87 91 90 80 70 63 76 88 91 89 79 68 64 65 70 73 72 71 68 64 64 70 77 82 85 85 80 76 75 76 77 79 84
193 190 188 189 191 193 194 194 196 198 201 202 202 202 201 200 200 201 202 202 202 200 200 203 207 206 203 206 208 207 207 209 208 207 206 204 200 191 178 122 85 65 54 57 59 58 63 74 81 78 71 75 86 96 94 87 96 96 85 74 61 71 83 87 87 75 63 64 65 67 71 73 72 71 67 64 66 70 76 80 81 80 78 78 79 78 77 77
193 190 190 190 192 195 195 196 197 200 202 204 205 205 204 202 201 202 203 204 205 205 205 208 211 210 208 210 212 212 213 215 216 216 216 215 215 212 208 198 124 83 60 52 55 56 55 58 65 76 79 73 74 78 74 72 81 88 93 81 53 65 81 82 78 67 63 72 77 78 73 70 70 71 70 67 67 69 70 69 70 69 69 70 72 73 72 70
194 192 192 192 194 196 197 198 199 202 204 205 207 208 208 206 204 203 204 206 207 209 211 212 215 215 214 214 215 217 219 220 221 223 224 224 226 228 227 229 229 189 75 42 44 40 40 43 43 49 64 76 79 73 62 63 67 73 89 96 42 64 82 83 73 57 55 67 79 85 81 71 67 69 71 67 65 67 68 67 62 59 57 54 53 55 56 56
195 194 194 195 196 198 199 200 202 204 206 207 208 210 211 210 208 206 206 207 209 212 215 216 218 219 219 219 219 221 224 226 226 227 230 231 232 235 236 239 243 247 256 281 333 359 15 28 27 23 33 57 77 76 59 51 60 69 80 100 77 82 89 84 65 42 39 46 58 66 67 67 70 72 68 61 58 57 60 64 59 54 52 48 42 36 33 37
197 196 197 198 199 200 202 203 205 207 208 209 210 212 213 213 212 210 209 209 210 213 217 219 221 223 223 224 225 225 228 230 230 230 231 233 235 237 240 243 246 251 257 263 271 289 322 350 359 353 351 6 40 69 69 47 55 71 86 77 74 89 103 106 88 33 21 23 31 40 45 51 61 65 59 53 50 44 46 54 55 51 49 49 42 30 21 20
200 199 199 201 201 203 204 206 207 209 212 213 213 214 215 215 215 214 212 212 212 214 217 220 224 225 226 227 228 229 230 232 233 233 233 234 237 239 242 244 247 250 255 259 262 269 281 295 302 307 314 325 339 13 59 50 54 65 26 17 57 78 103 129 156 187 358 358 355 2 24 39 44 41 37 36 30 21 24 35 45 43 42 50 47 32 16 8
203 202 203 204 204 205 206 208 209 211 214 216 217 217 218 218 218 217 215 214 214 215 218 221 224 225 226 228 230 231 231 232 234 235 235 236 237 240 243 245 247 248 251 255 260 265 270 275 280 286 294 300 306 310 309 319 2 306 285 339 46 62 71 93 125 283 288 288 292 303 330 356 5 355 345 343 339 344 352 354 353 340 332 344 9 7 349 340
207 207 207 207 207 208 209 210 211 213 215 218 220 221 221 221 221 221 219 218 217 218 220 223 225 226 227 229 231 232 233 233 234 236 237 238 238 240 243 246 248 248 250 255 259 263 265 267 271 276 282 288 293 297 298 301 298 280 283 304 352 39 46 33 357 308 285 274 274 281 297 308 299 288 294 301 305 315 321 319 313 304 295 296 306 315 316 319
211 211 211 211 211 211 212 213 214 216 218 220 222 223 224 224 224 224 223 221 221 222 223 226 228 228 230 232 233 235 236 236 236 237 239 240 240 241 243 246 248 250 251 254 257 260 261 263 264 267 271 275 279 283 285 285 282 281 287 299 309 306 305 328 320 307 300 283 265 268 280 293 300 302 302 299 298 304 309 307 301 289 282 285 293 301 305 307
215 215 215 215 215 215 215 216 217 218 220 223 225 226 227 227 227 227 226 224 224 224 226 228 229 230 232 235 236 237 238 239 239 239 242 243 242 242 243 245 248 250 252 253 255 256 258 259 262 264 267 268 267 267 266 262 262 267 275 285 289 288 287 284 281 283 285 279 272 272 278 285 295 302 303 302 302 302 303 301 292 282 277 278 283 289 293 295
217 218 218 218 218 218 219 219 221 222 223 225 228 230 231 231 231 231 230 228 226 226 227 228 229 230 232 236 239 239 239 240 242 243 245 247 247 245 245 246 248 250 251 252 253 254 256 258 261 264 267 268 266 263 261 259 258 261 266 272 274 274 276 274 270 266 268 271 276 283 290 295 300 303 299 295 291 288 288 290 289 287 285 286 289 291 290 290
219 220 221 221 221 222 222 223 223 224 225 227 229 232 233 234 234 234 233 232 231 231 231 232 231 231 232 235 239 241 242 242 244 246 247 249 250 249 249 248 249 250 251 252 253 255 257 259 260 263 266 267 266 264 263 261 259 259 261 263 263 266 269 269 268 267 266 269 278 289 298 303 303 302 297 291 288 286 280 275 282 289 293 294 294 294 295 294
220 221 222 223 223 224 226 226 227 226 226 228 230 232 234 236 237 237 236 236 236 236 236 236 236 236 236 237 239 242 244 245 246 247 249 250 252 253 252 252 251 251 251 252 254 256 259 260 260 260 260 261 261 261 262 262 260 258 257 257 258 260 262 263 263 264 268 275 286 292 296 299 297 294 290 287 287 289 288 284 283 288 292 295 295 294 292 291
221 222 224 225 225 226 228 229 230 230 229 229 231 233 235 236 238 239 238 237 237 238 239 239 240 240 240 240 241 243 245 247 249 250 251 253 253 254 254 254 254 253 253 254 255 256 258 259 257 255 254 256 258 259 260 260 260 260 258 257 257 256 256 257 258 263 271 279 285 286 286 286 285 286 287 285 282 280 281 282 284 287 290 293 295 294 292 291
224 225 226 227 228 229 230 231 232 232 232 231 232 233 235 237 238 239 240 240 240 240 240 240 240 241 242 244 245 245 247 248 249 250 252 253 254 255 255 255 255 256 256 257 256 256 256 256 255 256 257 259 260 261 261 262 262 262 260 259 257 256 254 254 256 263 270 275 276 277 276 275 274 273 275 278 280 278 276 274 274 278 283 287 288 288 289 290
228 228 229 230 231 232 233 234 234 235 234 234 233 234 235 236 238 239 240 241 242 242 242 242 242 243 245 246 247 248 249 249 249 250 250 252 253 255 256 256 257 259 259 258 257 256 257 257 259 261 262 263 262 262 264 265 266 265 263 261 259 259 260 260 260 261 264 266 269 270 269 267 266 266 265 267 271 273 275 274 274 276 279 281 281 282 284 285
230 231 232 232 233 234 235 236 237 237 237 236 236 236 236 237 238 239 239 240 242 243 244 245 245 245 245 245 247 249 250 250 250 250 250 251 252 254 256 258 259 260 260 259 259 259 259 260 261 261 262 262 261 261 263 264 265 266 265 265 265 264 265 265 263 260 259 260 261 262 262 261 261 262 264 265 266 267 269 272 275 279 281 281 281 282 283 284
232 233 234 235 235 236 238 239 240 240 240 240 240 240 240 240 240 240 240 241 242 243 244 245 246 246 246 247 247 248 250 250 250 251 252 252 253 254 256 258 259 260 262 262 261 260 261 261 260 260 261 261 261 261 260 261 262 263 263 264 266 265 264 264 264 262 261 260 258 258 259 260 260 261 262 262 263 265 268 271 275 278 279 280 281 283 283 282
234 236 237 237 238 239 240 241 242 243 243 244 244 244 244 243 243 243 243 243 243 243 244 245 246 247 247 247 247 247 248 249 250 251 252 253 253 255 256 258 259 261 263 263 261 261 262 260 260 261 262 262 262 262 261 261 262 263 263 263 262 263 263 263 264 265 265 265 263 261 260 260 261 262 263 261 262 264 268 272 274 276 277 278 280 280 281 282
236 238 239 240 241 241 242 243 244 245 245 245 246 247 247 247 247 246 247 246 245 245 246 246 247 248 247 247 246 247 247 249 250 251 252 253 254 255 256 257 258 260 261 261 261 261 261 260 261 263 262 261 262 263 264 264 262 263 264 263 262 263 264 264 264 265 266 267 266 264 263 263 263 264 264 264 264 266 268 270 272 274 275 276 277 278 279 281
239 240 241 242 243 243 244 245 246 246 247 247 247 247 248 248 249 250 250 250 248 248 248 247 248 249 249 248 248 249 249 251 252 253 254 254 255 255 256 256 257 257 259 260 261 262 262 261 261 262 261 262 263 264 264 262 261 261 262 261 262 262 263 264 264 264 265 265 266 267 266 267 267 267 267 268 269 270 271 271 272 273 274 275 276 278 279 280
242 243 243 244 245 245 246 246 246 247 248 248 248 248 248 248 249 250 251 252 251 251 251 250 250 250 250 250 251 251 251 252 252 253 254 254 254 254 255 256 256 256 257 259 260 261 261 262 261 260 261 262 262 262 261 260 260 260 260 260 261 261 262 263 264 265 266 266 268 269 269 270 270 270 270 272 273 274 274 274 274 275 276 277 278 279 280 281
243 244 245 245 246 247 247 247 248 248 248 249 249 249 249 249 249 250 251 251 251 252 252 252 252 252 251 251 252 253 252 252 253 253 253 254 254 254 255 255 256 256 256 258 259 259 259 259 259 258 258 259 259 260 260 260 260 260 260 259 260 261 262 263 264 266 267 268 269 270 271 271 270 271 273 274 274 275 276 276 277 278 279 279 280 280 281 281
244 244 245 245 246 247 248 249 249 249 249 249 249 249 249 249 249 250 250 251 251 251 251 252 253 253 254 253 253 254 254 254 254 255 254 254 254 255 256 257 257 257 256 257 259 259 258 257 257 257 257 258 259 260 260 260 260 260 260 260 261 262 262 263 264 265 266 266 267 268 269 269 270 272 274 276 277 277 277 277 278 279 280 280 280 280 281 281
246 245 245 245 245 246 247 248 249 249 249 249 249 250 250 250 249 249 249 250 250 250 250 251 252 253 254 254 255 256 256 256 256 256 256 256 255 255 256 257 257 257 256 256 257 259 259 258 258 259 260 260 261 261 261 260 260 260 261 262 262 262 262 263 263 263 264 265 266 268 269 270 271 273 275 278 279 279 279 279 280 280 280 280 279 279 279 280
247 247 247 246 246 246 247 249 249 249 249 249 249 249 250 250 250 249 249 249 249 249 249 250 252 253 253 254 255 256 257 257 257 258 258 258 257 256 257 257 257 257 257 257 257 259 260 260 259 259 259 259 260 260 261 261 262 262 263 264 263 263 263 264 264 265 265 266 268 269 269 270 271 273 275 277 278 278 278 279 279 279 279 278 278 278 279 279
247 248 248 248 248 248 249 250 250 250 250 250 249 249 249 249 250 250 250 250 250 250 250 250 252 253 254 255 255 256 257 257 258 258 258 258 258 257 257 257 258 258 258 259 259 259 261 261 261 259 259 259 259 260 261 262 262 263 263 264 264 265 265 265 266 267 267 268 269 269 270 270 272 273 274 275 275 276 277 278 278 278 278 278 278 278 279 279
247 248 248 248 249 249 249 250 251 251 251 251 250 250 250 250 251 252 252 252 253 252 252 251 252 253 254 255 255 255 256 257 257 258 259 259 259 258 258 258 259 259 259 260 261 261 262 263 262 262 261 260 260 261 262 262 263 263 263 264 264 265 265 266 266 267 267 268 269 270 271 272 272 273 273 273 273 274 276 277 277 277 278 278 278 278 279 279
247 247 248 248 248 249 249 249 250 250 251 252 251 251 252 252 253 254 254 254 254 254 253 253 253 254 255 255 256 256 256 256 257 258 259 260 260 260 259 259 260 261 262 262 262 263 264 264 264 264 263 262 262 262 262 263 263 264 265 265 266 266 266 266 266 266 267 267 268 269 270 272 274 274 274 273 273 274 275 275 276 276 277 277 278 278 278 279
247 248 248 248 247 248 248 248 249 250 250 251 251 252 252 253 254 255 256 255 255 255 255 255 254 255 255 256 257 258 258 258 258 259 260 261 261 262 262 262 262 262 263 263 263 263 264 265 265 265 265 264 263 263 264 264 265 266 267 267 267 267 268 268 268 268 268 268 268 269 270 272 274 274 274 274 274 275 275 275 276 276 276 277 277 278 279 279
247 248 249 248 247 247 248 248 248 249 250 250 251 251 252 253 254 255 256 256 257 257 257 256 256 256 256 256 258 259 259 259 259 259 260 261 262 262 263 263 263 263 263 263 263 262 263 264 265 265 265 265 265 264 264 264 264 265 266 266 267 267 268 268 268 268 268 268 268 268 268 270 271 271 272 273 274 274 275 275 276 276 276 277 277 278 278 278
247 248 249 249 248 247 248 248 249 249 250 250 250 250 251 252 253 254 255 256 257 257 257 257 257 257 257 257 258 260 261 262 261 261 261 262 262 263 263 263 263 262 262 262 262 262 262 262 264 265 265 266 266 266 266 265 265 265 265 265 266 266 267 267 267 267 267 267 267 267 267 268 269 270 271 273 273 274 274 275 275 275 276 277 277 278 278 278
249 249 250 250 250 250 250 250 250 251 251 251 250 250 250 250 251 253 254 256 256 257 258 258 258 258 258 258 259 260 261 263 264 264 264 264 264 264 264 264 263 262 262 262 262 262 262 263 264 265 266 266 267 268 269 269 269 269 268 268 268 269 269 269 269 269 269 269 269 269 269 270 271 272 273 273 273 273 273 274 275 275 276 276 277 277 277 278
251 251 251 251 251 251 251 252 252 253 253 252 251 250 250 250 251 251 253 255 256 257 258 259 259 259 259 259 260 261 262 263 264 265 266 266 266 265 264 264 263 262 262 262 262 262 263 263 264 266 267 268 269 269 270 271 271 271 271 271 270 270 270 270 270 270 270 271 271 271 271 271 272 273 273 272 272 272 273 273 274 275 275 275 275 275 275 275
253 252 252 252 252 252 252 253 253 254 254 254 253 252 252 251 251 252 253 254 256 257 259 259 260 260 261 261 262 263 263 264 264 264 265 265 264 264 263 263 262 262 262 261 262 262 263 263 264 265 266 267 269 269 269 270 270 271 271 272 272 272 271 271 271 271 270 271 271 271 272 272 271 270 271 271 271 272 273 274 274 274 275 274 274 273 273 274
254 254 254 254 253 253 253 253 253 254 254 254 254 254 253 253 253 253 254 255 257 258 259 259 260 261 261 261 262 262 263 264 263 263 262 262 262 262 262 262 262 262 263 263 263 263 263 263 263 263 263 264 266 267 267 268 268 269 270 271 272 273 273 273 273 273 273 273 272 272 273 272 270 269 269 270 271 272 273 274 273 273 273 273 273 273 273 273
256 255 255 256 255 254 254 253 253 254 254 254 254 253 253 253 253 253 254 255 256 257 258 259 259 260 260 261 261 262 262 263 263 263 263 263 262 262 262 263 263 264 265 266 266 266 265 264 264 263 262 263 264 265 266 267 267 268 269 270 271 272 273 274 275 276 276 275 274 275 276 273 271 271 270 271 272 273 273 273 273 272 272 272 273 273 273 274
258 257 256 257 257 256 255 255 254 254 254 255 255 254 254 254 253 253 252 253 254 255 256 257 258 260 260 261 261 262 262 263 264 265 265 265 265 265 265 266 266 267 268 268 268 268 268 267 266 266 265 265 265 266 267 268 269 269 270 270 271 271 272 273 275 276 276 275 276 279 278 275 274 275 274 274 274 273 273 273 274 274 274 274 274 274 273 273
258 258 258 258 258 258 257 256 255 255 255 255 255 255 255 255 254 253 253 252 253 254 255 256 258 259 260 261 262 263 263 264 265 265 266 266 267 267 268 269 269 270 270 270 270 269 269 269 268 268 267 267 267 267 267 268 269 270 271 272 273 273 273 273 273 274 273 274 276 277 276 276 276 276 276 276 276 276 276 276 276 277 277 277 277 277 277 276
258 258 258 259 259 260 259 258 257 256 256 255 256 256 256 256 255 255 254 253 253 253 254 256 257 258 260 261 262 263 264 264 265 266 267 267 267 268 269 270 271 271 271 271 271 271 271 270 270 269 269 269 269 269 269 269 269 271 272 273 274 275 276 275 275 275 275 275 276 275 275 276 277 276 276 277 277 277 278 278 278 278 278 279 279 279 279 279
257 258 258 259 259 259 260 260 258 257 257 256 256 256 256 257 257 256 255 255 255 254 254 255 256 258 259 261 262 263 263 264 265 266 267 268 269 269 269 270 271 271 272 272 272 272 272 272 272 272 271 272 272 271 271 271 272 272 273 273 274 275 275 275 276 277 277 278 278 277 276 277 277 277 277 278 278 278 278 278 278 278 278 278 279 279 279 280
257 257 258 258 259 259 259 260 260 259 258 257 257 257 257 257 257 257 257 257 256 256 256 256 257 258 259 260 261 262 263 264 265 266 267 268 269 270 270 271 271 272 272 272 272 273 273 273 274 274 274 274 274 274 274 273 273 273 273 274 274 273 273 274 275 276 277 277 278 277 277 278 278 278 278 278 279 279 279 279 279 279 279 279 279 280 280 280
255 256 257 257 258 258 258 259 259 260 260 259 258 258 257 257 257 258 258 258 259 258 258 258 259 259 259 260 261 262 263 264 265 266 267 268 269 270 271 271 272 272 273 273 273 273 273 274 274 274 274 275 274 275 275 275 274 275 275 275 274 274 274 274 275 275 275 276 276 277 277 277 278 278 278 278 278 278 279 279 280 280 281 281 281 281 281 281
254 255 255 256 257 257 258 258 258 259 259 260 259 259 258 258 258 258 258 259 259 260 259 260 260 260 261 261 262 262 263 264 265 266 267 268 269 270 271 272 272 273 273 273 273 273 274 274 274 274 275 275 275 275 275 276 277 278 277 276 275 275 275 276 275 275 275 276 276 276 277 277 277 276 276 276 277 277 277 278 279 279 280 280 280 281 281 281
Height
10756 10758 10759 10760 10762 10763 10765 10766 10768 10770 10771 10773 10774 10776 10777 10779 10780 10782 10783 10784 10785 10786 10787 10788 10788 10789 10790 10791 10792 10793 10793 10794 10794 10794 10794 10794 10793 10793 10793 10792 10792 10792 10791 10790 10790 10789 10789 10788 10788 10787 10785 10783 10782 10781 10780 10778 10777 10776 10774 10773 10773 10773 10775 10775 10776 10776 10776 10776 10773 10771 10769 10768 10766 10763 10761 10760 10761 10762 10762 10763 10764 10764 10765 10766 10766 10767 10768 10770
10755 10757 10758 10759 10761 10762 10764 10766 10767 10769 10771 10772 10774 10775 10777 10779 10780 10781 10783 10784 10785 10786 10787 10788 10788 10789 10790 10791 10792 10793 10794 10794 10794 10794 10794 10794 10794 10794 10793 10793 10793 10793 10792 10791 10791 10790 10790 10790 10789 10788 10787 10785 10784 10783 10782 10782 10781 10780 10777 10775 10774 10775 10776 10778 10778 10779 10779 10779 10777 10774 10771 10770 10768 10766 10764 10763 10763 10764 10765 10766 10766 10767 10768 10769 10770 10770 10770 10771
10754 10756 10757 10759 10760 10762 10764 10765 10767 10769 10770 10772 10773 10775 10776 10778 10779 10781 10782 10783 10785 10786 10787 10787 10788 10789 10790 10791 10792 10793 10793 10794 10794 10795 10795 10795 10795 10795 10794 10794 10794 10793 10793 10792 10792 10791 10791 10791 10790 10790 10789 10787 10786 10785 10784 10784 10784 10784 10782 10778 10776 10776 10778 10779 10780 10780 10780 10781 10780 10777 10774 10772 10771 10769 10768 10767 10767 10767 10767 10768 10769 10769 10770 10771 10773 10773 10773 10774
10754 10755 10757 10758 10760 10761 10763 10765 10767 10768 10770 10771 10773 10774 10776 10777 10779 10780 10781 10783 10784 10785 10786 10787 10788 10789 10790 10791 10792 10793 10793 10794 10794 10795 10795 10795 10795 10795 10795 10795 10795 10794 10794 10793 10793 10792 10792 10792 10791 10791 10790 10789 10788 10787 10787 10786 10786 10787 10786 10782 10778 10777 10779 10780 10781 10781 10782 10783 10782 10779 10777 10775 10774 10772 10771 10771 10770 10770 10770 10770 10771 10771 10772 10773 10774 10775 10776 10777
10753 10754 10756 10757 10759 10761 10762 10764 10766 10768 10769 10771 10772 10774 10775 10777 10778 10779 10781 10782 10783 10785 10786 10787 10787 10788 10789 10790 10791 10792 10793 10794 10794 10795 10795 10795 10796 10796 10796 10795 10795 10795 10795 10794 10794 10794 10793 10792 10792 10792 10791 10791 10790 10790 10789 10788 10788 10788 10789 10787 10782 10779 10781 10782 10782 10783 10784 10784 10784 10782 10780 10778 10777 10775 10774 10774 10774 10774 10774 10774 10774 10773 10774 10776 10776 10777 10778 10779
10752 10754 10755 10757 10758 10760 10762 10764 10765 10767 10769 10770 10772 10773 10775 10776 10777 10779 10780 10781 10783 10784 10785 10786 10787 10788 10789 10790 10791 10792 10793 10793 10794 10794 10795 10795 10796 10796 10796 10796 10796 10795 10795 10795 10795 10795 10794 10793 10793 10792 10792 10792 10791 10791 10791 10790 10789 10790 10790 10790 10786 10781 10781 10784 10785 10785 10785 10786 10785 10784 10782 10781 10780 10778 10778 10777 10776 10777 10777 10778 10778 10777 10778 10778 10779 10780 10780 10780
10751 10753 10754 10756 10758 10759 10761 10763 10765 10766 10768 10770 10771 10772 10774 10775 10777 10778 10779 10781 10782 10783 10784 10785 10786 10787 10788 10789 10790 10791 10792 10793 10793 10794 10795 10795 10796 10796 10796 10796 10796 10796 10795 10795 10795 10795 10795 10794 10794 10793 10793 10793 10792 10792 10792 10791 10790 10791 10791 10791 10789 10785 10783 10785 10786 10787 10787 10787 10786 10785 10784 10782 10782 10781 10781 10780 10779 10779 10780 10780 10781 10781 10781 10781 10782 10782 10783 10783
10750 10752 10753 10755 10757 10759 10760 10762 10764 10766 10767 10769 10770 10772 10773 10774 10776 10778 10779 10780 10781 10783 10784 10785 10785 10786 10787 10788 10789 10790 10791 10792 10793 10794 10794 10795 10795 10796 10796 10796 10797 10796 10796 10796 10795 10795 10795 10795 10794 10794 10794 10793 10793 10793 10793 10792 10791 10792 10792 10792 10791 10788 10785 10786 10788 10788 10789 10789 10788 10787 10785 10784 10783 10783 10783 10783 10782 10782 10782 10782 10783 10783 10783 10783 10784 10784 10785 10785
10749 10751 10752 10754 10756 10758 10760 10761 10763 10765 10766 10768 10769 10771 10772 10774 10775 10777 10778 10779 10781 10782 10783 10783 10784 10785 10786 10787 10788 10789 10790 10791 10792 10793 10794 10795 10795 10796 10796 10796 10797 10797 10796 10796 10796 10795 10795 10795 10795 10795 10794 10794 10794 10793 10793 10793 10793 10793 10793 10792 10792 10790 10787 10788 10789 10790 10791 10791 10790 10789 10787 10787 10786 10786 10785 10785 10785 10784 10784 10785 10785 10785 10785 10785 10786 10786 10786 10786
10748 10750 10751 10753 10755 10757 10758 10760 10762 10764 10765 10767 10768 10770 10771 10773 10774 10776 10777 10778 10780 10781 10782 10782 10783 10784 10785 10786 10787 10788 10789 10790 10791 10792 10793 10794 10795 10795 10796 10796 10797 10797 10797 10796 10796 10796 10796 10795 10795 10795 10795 10795 10794 10794 10794 10794 10794 10794 10793 10793 10793 10791 10789 10789 10789 10790 10791 10792 10792 10791 10790 10789 10788 10787 10787 10787 10787 10786 10786 10786 10786 10786 10787 10787 10787 10788 10788 10788
10747 10749 10750 10752 10754 10755 10757 10759 10761 10763 10764 10766 10767 10768 10770 10771 10773 10774 10776 10777 10778 10780 10780 10781 10782 10783 10784 10785 10786 10787 10788 10789 10790 10791 10792 10793 10794 10795 10795 10796 10796 10797 10797 10797 10796 10796 10796 10796 10796 10796 10795 10795 10795 10795 10795 10795 10794 10793 10793 10795 10795 10792 10791 10790 10790 10791 10791 10792 10792 10792 10792 10791 10790 10789 10788 10788 10788 10788 10788 10788 10788 10788 10788 10788 10788 10788 10789 10789
10746 10748 10749 10751 10753 10754 10756 10758 10760 10761 10763 10764 10766 10767 10768 10770 10772 10773 10774 10776 10777 10778 10779 10780 10781 10782 10783 10784 10785 10786 10787 10788 10789 10790 10791 10792 10793 10794 10794 10795 10796 10796 10796 10797 10797 10796 10796 10796 10796 10796 10796 10795 10795 10795 10795 10794 10794 10793 10794 10795 10795 10793 10792 10791 10791 10791 10792 10792 10792 10792 10792 10792 10791 10791 10790 10790 10790 10790 10790 10789 10789 10789 10789 10789 10789 10789 10789 10790
10745 10747 10748 10750 10751 10753 10755 10757 10759 10760 10761 10763 10764 10766 10767 10769 10770 10772 10773 10774 10776 10777 10778 10779 10780 10781 10782 10783 10784 10785 10786 10787 10788 10789 10790 10791 10791 10792 10793 10794 10795 10795 10796 10796 10797 10796 10796 10796 10796 10796 10796 10795 10795 10794 10794 10795 10794 10794 10794 10796 10795 10793 10793 10793 10793 10793 10792 10792 10792 10792 10792 10792 10792 10792 10792 10792 10791 10791 10791 10791 10790 10790 10790 10790 10790 10790 10790 10790
10744 10746 10747 10749 10750 10752 10754 10756 10757 10759 10760 10762 10763 10764 10766 10767 10769 10770 10771 10773 10774 10775 10777 10778 10778 10779 10781 10782 10783 10783 10784 10785 10786 10787 10788 10789 10790 10791 10792 10793 10793 10794 10795 10796 10796 10796 10796 10796 10796 10796 10796 10796 10795 10795 10795 10795 10795 10794 10795 10796 10795 10794 10793 10793 10794 10793 10793 10792 10792 10793 10793 10792 10792 10792 10793 10792 10792 10792 10792 10791 10791 10791 10791 10791 10791 10791 10791 10791
10743 10744 10746 10748 10749 10751 10752 10754 10756 10758 10759 10760 10762 10763 10764 10766 10767 10768 10770 10771 10773 10774 10775 10776 10776 10777 10779 10780 10781 10782 10783 10784 10784 10785 10786 10788 10789 10790 10790 10791 10792 10793 10794 10794 10795 10795 10796 10796 10796 10796 10796 10796 10796 10795 10795 10795 10795 10795 10796 10796 10795 10794 10794 10794 10794 10794 10794 10794 10793 10793 10793 10793 10793 10793 10793 10793 10793 10793 10792 10792 10792 10792 10792 10791 10791 10791 10791 10791
10742 10743 10745 10746 10748 10750 10751 10753 10754 10756 10758 10759 10760 10761 10763 10764 10765 10767 10768 10770 10771 10772 10773 10773 10774 10776 10778 10779 10779 10780 10781 10782 10783 10784 10785 10786 10787 10788 10789 10789 10790 10791 10792 10793 10793 10794 10795 10795 10795 10796 10796 10796 10796 10796 10796 10795 10795 10795 10795 10795 10795 10795 10795 10795 10795 10795 10795 10795 10794 10794 10793 10793 10793 10793 10793 10793 10793 10793 10792 10792 10793 10792 10792 10791 10791 10791 10791 10791
10741 10742 10744 10745 10747 10748 10750 10751 10753 10754 10756 10757 10758 10759 10761 10762 10764 10765 10767 10768 10770 10771 10771 10772 10773 10775 10776 10777 10778 10779 10779 10780 10781 10782 10783 10784 10786 10786 10787 10788 10789 10789 10790 10791 10792 10793 10794 10794 10794 10795 10795 10795 10796 10796 10796 10795 10795 10795 10795 10795 10795 10795 10795 10795 10795 10795 10795 10795 10795 10794 10793 10793 10793 10793 10793 10793 10793 10792 10792 10792 10793 10793 10792 10791 10791 10790 10790 10790
10739 10740 10742 10744 10745 10747 10748 10750 10751 10753 10754 10755 10756 10758 10759 10760 10762 10763 10765 10766 10768 10769 10769 10770 10771 10773 10775 10775 10776 10777 10778 10779 10780 10781 10782 10783 10784 10785 10785 10786 10787 10788 10789 10789 10790 10791 10792 10792 10793 10793 10794 10795 10795 10795 10795 10795 10795 10795 10795 10795 10795 10795 10795 10795 10795 10795 10794 10794 10794 10793 10793 10793 10793 10792 10792 10792 10792 10792 10792 10792 10792 10792 10792 10792 10791 10790 10790 10790
10737 10738 10740 10742 10743 10745 10747 10748 10750 10751 10752 10754 10755 10756 10757 10758 10760 10761 10763 10764 10765 10766 10766 10767 10769 10771 10773 10774 10774 10775 10776 10777 10778 10779 10780 10781 10782 10783 10784 10784 10785 10786 10787 10787 10788 10789 10790 10791 10792 10792 10793 10793 10794 10794 10794 10794 10794 10794 10795 10794 10794 10794 10794 10794 10795 10794 10794 10794 10793 10792 10792 10792 10792 10792 10792 10791 10791 10791 10791 10791 10791 10791 10791 10791 10791 10790 10790 10790
10735 10736 10738 10740 10741 10743 10745 10746 10748 10749 10750 10751 10752 10753 10755 10756 10757 10759 10761 10762 10763 10764 10765 10766 10767 10769 10770 10771 10772 10773 10774 10775 10777 10777 10778 10779 10779 10780 10781 10782 10783 10784 10785 10785 10786 10787 10788 10789 10790 10791 10791 10791 10792 10792 10792 10792 10793 10793 10794 10794 10793 10793 10793 10793 10793 10793 10793 10793 10793 10793 10792 10791 10791 10791 10791 10791 10790 10790 10790 10790 10790 10789 10789 10789 10789 10789 10789 10788
10733 10734 10736 10737 10739 10741 10743 10744 10745 10746 10748 10749 10750 10751 10752 10753 10755 10756 10758 10760 10761 10762 10763 10764 10766 10767 10768 10769 10770 10771 10772 10773 10774 10775 10776 10777 10777 10778 10779 10780 10781 10782 10782 10783 10784 10785 10786 10787 10788 10789 10789 10789 10789 10790 10790 10790 10791 10792 10793 10793 10792 10792 10792 10792 10792 10791 10791 10792 10793 10793 10792 10791 10790 10790 10790 10790 10790 10789 10789 10789 10788 10788 10788 10788 10788 10788 10787 10787
10731 10732 10733 10735 10737 10739 10740 10741 10742 10743 10745 10746 10748 10749 10750 10751 10752 10754 10756 10757 10758 10759 10760 10762 10764 10765 10766 10767 10768 10769 10770 10771 10772 10773 10774 10774 10775 10776 10777 10778 10778 10779 10780 10781 10782 10783 10783 10784 10785 10785 10786 10786 10787 10787 10788 10788 10788 10789 10791 10791 10791 10791 10790 10790 10790 10790 10790 10792 10792 10792 10791 10790 10789 10788 10788 10788 10789 10789 10788 10788 10787 10787 10787 10786 10786 10786 10785 10785
10729 10730 10731 10733 10735 10736 10737 10738 10739 10740 10742 10744 10745 10746 10747 10748 10749 10751 10753 10754 10755 10756 10757 10760 10761 10762 10763 10765 10766 10767 10768 10769 10770 10770 10771 10772 10772 10773 10774 10775 10776 10776 10778 10779 10780 10780 10781 10781 10781 10782 10783 10784 10785 10785 10785 10786 10786 10787 10788 10789 10789 10788 10788 10788 10789 10789 10789 10790 10790 10790 10789 10788 10788 10788 10787 10787 10787 10787 10787 10787 10787 10787 10786 10786 10785 10784 10784 10783
10726 10728 10729 10731 10732 10734 10735 10735 10736 10738 10739 10741 10742 10743 10744 10745 10747 10748 10750 10751 10752 10753 10755 10756 10758 10759 10761 10762 10763 10764 10765 10766 10767 10768 10769 10769 10770 10770 10771 10772 10773 10774 10775 10776 10777 10777 10778 10778 10779 10779 10780 10781 10782 10782 10783 10783 10784 10785 10786 10786 10786 10786 10786 10787 10788 10788 10788 10788 10788 10787 10787 10786 10785 10785 10786 10786 10786 10785 10786 10785 10785 10786 10786 10785 10784 10784 10783 10782
10724 10725 10726 10728 10729 10731 10732 10733 10734 10735 10737 10738 10739 10741 10742 10742 10744 10745 10747 10748 10749 10750 10752 10753 10755 10757 10757 10758 10760 10761 10761 10762 10764 10765 10765 10766 10767 10768 10769 10770 10771 10772 10772 10773 10774 10774 10775 10776 10776 10777 10778 10778 10778 10779 10780 10780 10781 10782 10782 10783 10783 10784 10784 10784 10785 10786 10785 10785 10785 10785 10784 10783 10782 10782 10783 10784 10783 10783 10784 10783 10783 10784 10784 10783 10782 10782 10782 10781
10721 10722 10724 10725 10726 10728 10729 10730 10731 10732 10734 10735 10737 10738 10739 10740 10741 10742 10743 10745 10746 10747 10748 10750 10751 10752 10753 10756 10757 10757 10757 10758 10759 10761 10762 10763 10765 10766 10766 10768 10769 10769 10769 10770 10770 10771 10772 10773 10773 10774 10774 10775 10775 10776 10777 10777 10777 10778 10779 10780 10780 10780 10781 10781 10781 10781 10781 10782 10782 10781 10781 10781 10779 10779 10780 10781 10780 10780 10781 10782 10782 10783 10782 10781 10780 10779 10779 10778
10719 10720 10721 10722 10723 10725 10726 10727 10728 10729 10731 10732 10734 10735 10736 10737 10738 10739 10740 10741 10743 10744 10744 10746 10747 10747 10750 10752 10752 10752 10752 10753 10755 10757 10757 10759 10761 10762 10764 10764 10765 10766 10766 10766 10766 10767 10769 10770 10769 10770 10771 10771 10771 10772 10774 10775 10774 10774 10776 10777 10776 10776 10777 10777 10777 10777 10777 10777 10777 10777 10778 10778 10777 10775 10775 10777 10777 10778 10779 10780 10780 10780 10779 10779 10778 10777 10776 10775
10716 10717 10718 10719 10720 10722 10723 10724 10725 10726 10727 10729 10730 10731 10732 10733 10734 10736 10737 10738 10739 10740 10741 10742 10743 10744 10745 10745 10746 10747 10748 10749 10751 10753 10753 10756 10758 10759 10760 10761 10762 10763 10762 10761 10761 10762 10764 10765 10766 10767 10768 10767 10767 10768 10771 10772 10771 10771 10772 10773 10772 10772 10773 10773 10774 10773 10773 10773 10771 10772 10774 10774 10773 10770 10770 10773 10775 10776 10778 10778 10778 10777 10777 10776 10775 10774 10773 10771
10713 10714 10715 10716 10717 10718 10719 10720 10721 10722 10724 10725 10726 10728 10729 10730 10731 10733 10733 10734 10735 10736 10737 10738 10739 10739 10739 10740 10741 10743 10745 10747 10748 10749 10750 10753 10754 10755 10756 10757 10759 10759 10758 10756 10756 10758 10759 10761 10763 10763 10763 10763 10763 10764 10766 10767 10767 10767 10768 10767 10767 10768 10769 10769 10769 10769 10769 10768 10766 10767 10769 10769 10768 10765 10765 10769 10772 10774 10775 10775 10775 10774 10773 10773 10772 10771 10770 10768
10709 10710 10711 10712 10713 10715 10716 10717 10718 10719 10720 10721 10722 10724 10725 10727 10728 10729 10730 10730 10731 10732 10733 10735 10735 10734 10734 10735 10737 10739 10741 10743 10744 10745 10746 10748 10749 10750 10752 10753 10755 10756 10755 10752 10751 10753 10755 10756 10758 10759 10759 10758 10758 10759 10760 10761 10761 10762 10762 10762 10762 10764 10764 10764 10764 10764 10765 10764 10762 10762 10764 10764 10761 10759 10761 10765 10767 10769 10770 10769 10769 10769 10769 10768 10768 10767 10766 10764
10705 10707 10708 10709 10710 10711 10711 10712 10714 10715 10716 10717 10718 10720 10721 10723 10725 10726 10726 10726 10727 10728 10729 10730 10730 10729 10729 10732 10733 10734 10735 10738 10739 10740 10742 10743 10744 10746 10748 10749 10751 10751 10751 10748 10746 10748 10750 10750 10752 10754 10753 10753 10752 10752 10754 10755 10756 10757 10756 10756 10757 10759 10759 10760 10760 10760 10760 10759 10758 10758 10759 10758 10755 10754 10756 10760 10762 10763 10763 10763 10763 10764 10764 10763 10762 10761 10760 10759
10701 10703 10704 10705 10705 10706 10707 10708 10709 10711 10712 10713 10714 10716 10717 10719 10721 10721 10721 10722 10723 10724 10725 10725 10724 10724 10725 10727 10729 10729 10730 10733 10734 10734 10736 10737 10739 10742 10744 10745 10746 10746 10746 10744 10741 10742 10743 10743 10745 10747 10747 10747 10746 10746 10748 10749 10749 10750 10750 10751 10753 10754 10755 10755 10755 10756 10756 10754 10753 10753 10753 10752 10750 10750 10752 10754 10756 10757 10757 10757 10758 10759 10758 10757 10756 10755 10754 10752
10697 10698 10699 10700 10701 10702 10703 10704 10705 10706 10708 10709 10710 10712 10714 10715 10716 10716 10716 10717 10718 10719 10720 10720 10720 10720 10722 10723 10724 10724 10726 10728 10728 10729 10730 10732 10735 10738 10739 10739 10740 10739 10739 10739 10737 10736 10736 10737 10740 10742 10742 10743 10742 10740 10741 10742 10743 10744 10744 10746 10748 10748 10749 10750 10750 10751 10751 10748 10748 10749 10749 10746 10745 10747 10749 10750 10750 10750 10750 10751 10752 10753 10752 10750 10749 10748 10747 10746
10692 10694 10694 10695 10696 10698 10699 10700 10701 10702 10703 10705 10706 10708 10710 10710 10710 10710 10711 10712 10713 10713 10715 10715 10715 10716 10717 10719 10719 10720 10722 10723 10723 10724 10725 10726 10730 10733 10734 10733 10733 10733 10733 10733 10733 10733 10731 10731 10735 10737 10738 10738 10736 10734 10734 10736 10737 10737 10738 10740 10741 10741 10743 10744 10744 10745 10746 10744 10744 10744 10744 10742 10742 10744 10746 10746 10744 10743 10743 10745 10746 10746 10745 10743 10742 10741 10741 10740
10688 10689 10689 10690 10692 10693 10694 10695 10696 10697 10699 10700 10702 10704 10705 10705 10705 10706 10706 10707 10707 10709 10710 10711 10711 10711 10713 10714 10715 10716 10717 10718 10718 10719 10720 10722 10724 10727 10728 10728 10728 10728 10727 10727 10729 10728 10726 10725 10728 10731 10732 10732 10731 10729 10729 10729 10730 10731 10733 10733 10733 10735 10737 10737 10738 10739 10740 10740 10739 10739 10737 10737 10738 10741 10743 10742 10739 10737 10737 10738 10739 10739 10738 10736 10735 10734 10734 10734
10683 10683 10684 10685 10687 10688 10689 10690 10691 10692 10694 10695 10697 10699 10700 10700 10701 10701 10702 10702 10703 10703 10705 10706 10706 10707 10708 10709 10709 10711 10712 10713 10713 10713 10714 10716 10718 10721 10722 10722 10722 10722 10722 10722 10723 10723 10721 10720 10722 10724 10725 10726 10725 10724 10724 10723 10723 10725 10726 10726 10727 10729 10730 10731 10732 10733 10734 10734 10734 10733 10731 10731 10733 10736 10738 10736 10733 10732 10732 10732 10732 10732 10730 10728 10727 10728 10727 10727
10677 10678 10678 10680 10683 10683 10684 10685 10686 10687 10689 10691 10693 10695 10695 10696 10696 10696 10696 10697 10697 10698 10700 10701 10702 10702 10703 10703 10704 10705 10707 10708 10708 10708 10709 10710 10713 10714 10716 10717 10717 10716 10716 10717 10717 10717 10715 10714 10715 10717 10718 10718 10719 10718 10717 10718 10718 10719 10719 10720 10721 10722 10723 10724 10725 10726 10728 10728 10729 10728 10726 10725 10726 10728 10729 10728 10726 10726 10726 10726 10726 10725 10723 10721 10720 10720 10720 10719
10672 10672 10672 10675 10677 10678 10678 10680 10681 10682 10684 10686 10688 10690 10691 10691 10691 10691 10691 10691 10691 10692 10694 10695 10697 10697 10697 10698 10698 10699 10701 10702 10703 10703 10704 10705 10707 10708 10709 10710 10711 10711 10711 10711 10711 10711 10710 10708 10709 10710 10710 10710 10711 10711 10711 10712 10713 10713 10713 10714 10715 10715 10715 10717 10717 10719 10721 10722 10723 10723 10723 10722 10721 10720 10720 10719 10718 10718 10719 10719 10719 10718 10716 10715 10714 10712 10711 10711
10666 10666 10666 10668 10671 10672 10672 10674 10675 10676 10678 10681 10683 10685 10685 10686 10686 10685 10684 10685 10686 10687 10688 10690 10691 10692 10692 10693 10693 10693 10695 10696 10697 10698 10699 10700 10702 10703 10703 10704 10705 10705 10705 10705 10704 10704 10704 10703 10702 10703 10703 10702 10703 10704 10706 10707 10707 10708 10708 10708 10708 10708 10709 10709 10709 10711 10713 10714 10716 10718 10718 10718 10716 10714 10712 10711 10711 10711 10710 10711 10710 10709 10708 10708 10707 10706 10704 10703
10660 10661 10660 10662 10664 10666 10666 10667 10669 10671 10673 10675 10677 10679 10680 10680 10680 10679 10678 10679 10680 10681 10682 10684 10685 10686 10687 10687 10688 10688 10689 10689 10691 10693 10694 10695 10696 10697 10697 10698 10698 10698 10698 10698 10697 10697 10698 10697 10697 10696 10696 10695 10695 10695 10698 10700 10700 10702 10702 10701 10701 10701 10702 10702 10702 10704 10706 10706 10708 10710 10712 10712 10709 10707 10707 10705 10704 10703 10703 10702 10701 10701 10701 10700 10699 10698 10697 10695
10654 10655 10655 10656 10657 10659 10660 10661 10663 10665 10666 10669 10671 10672 10673 10674 10674 10673 10673 10673 10674 10675 10676 10678 10679 10680 10681 10682 10682 10682 10683 10683 10684 10686 10687 10689 10690 10691 10691 10691 10691 10690 10690 10690 10690 10691 10691 10692 10691 10691 10689 10689 10689 10689 10690 10691 10692 10693 10693 10693 10693 10693 10693 10693 10693 10695 10697 10698 10699 10701 10705 10707 10702 10699 10700 10698 10696 10695 10695 10695 10694 10694 10694 10693 10692 10691 10689 10688
10648 10649 10649 10649 10651 10653 10654 10655 10657 10658 10660 10662 10664 10666 10667 10668 10668 10668 10668 10668 10668 10669 10670 10671 10672 10674 10675 10675 10675 10676 10676 10677 10678 10679 10680 10681 10682 10683 10683 10683 10683 10683 10682 10682 10683 10684 10685 10686 10686 10686 10684 10682 10682 10684 10683 10683 10683 10684 10683 10684 10684 10684 10685 10684 10685 10687 10688 10689 10690 10691 10697 10701 10696 10692 10691 10689 10688 10687 10687 10688 10687 10686 10686 10686 10685 10684 10683 10682
10641 10642 10642 10643 10645 10646 10647 10649 10651 10651 10653 10655 10657 10659 10661 10662 10662 10663 10663 10663 10663 10663 10664 10665 10665 10666 10667 10668 10669 10669 10669 10670 10671 10673 10673 10674 10675 10675 10676 10675 10675 10675 10676 10676 10678 10679 10680 10681 10682 10681 10680 10677 10676 10677 10677 10677 10676 10675 10675 10675 10675 10676 10676 10675 10676 10678 10680 10683 10682 10682 10690 10694 10689 10685 10682 10679 10680 10680 10679 10681 10680 10679 10678 10677 10676 10676 10675 10675
10634 10635 10636 10636 10638 10640 10641 10643 10644 10644 10645 10648 10650 10651 10653 10655 10656 10657 10657 10657 10657 10657 10657 10658 10659 10659 10660 10661 10662 10662 10662 10661 10663 10665 10666 10666 10667 10668 10668 10669 10668 10669 10669 10670 10673 10674 10674 10675 10677 10676 10675 10673 10671 10670 10671 10671 10670 10670 10669 10668 10667 10667 10666 10667 10667 10668 10671 10674 10672 10673 10682 10684 10677 10676 10675 10672 10673 10673 10672 10672 10672 10670 10670 10668 10667 10668 10668 10668
10626 10628 10629 10629 10630 10633 10635 10637 10638 10637 10638 10640 10642 10644 10646 10648 10649 10650 10651 10651 10651 10651 10651 10651 10652 10652 10653 10655 10655 10655 10655 10654 10655 10657 10658 10658 10660 10661 10661 10662 10663 10663 10664 10665 10666 10667 10667 10668 10670 10670 10670 10669 10667 10665 10666 10665 10664 10665 10664 10662 10661 10660 10659 10658 10658 10659 10662 10662 10662 10667 10673 10670 10665 10666 10668 10666 10666 10666 10664 10663 10661 10661 10661 10661 10660 10660 10660 10660
10618 10620 10622 10621 10622 10625 10628 10630 10631 10631 10632 10633 10635 10637 10639 10641 10642 10643 10645 10645 10645 10644 10644 10644 10645 10645 10646 10648 10648 10648 10648 10647 10647 10649 10650 10651 10653 10654 10654 10655 10656 10658 10658 10659 10659 10659 10659 10660 10662 10662 10663 10663 10662 10660 10660 10659 10658 10658 10657 10656 10654 10653 10653 10652 10651 10652 10651 10649 10655 10662 10659 10656 10657 10657 10657 10658 10657 10656 10656 10654 10652 10651 10651 10651 10651 10650 10651 10651
10610 10611 10613 10614 10614 10616 10619 10622 10623 10624 10625 10626 10627 10630 10632 10633 10634 10635 10637 10638 10638 10638 10638 10638 10639 10639 10639 10640 10640 10641 10642 10641 10640 10641 10642 10643 10645 10646 10647 10648 10649 10651 10651 10651 10650 10650 10651 10652 10654 10654 10654 10655 10655 10654 10653 10653 10652 10651 10650 10649 10646 10644 10645 10645 10644 10644 10640 10640 10651 10656 10645 10643 10649 10648 10646 10647 10646 10644 10644 10644 10643 10641 10640 10639 10639 10639 10638 10638
10602 10603 10604 10606 10607 10608 10610 10613 10615 10616 10618 10619 10621 10623 10624 10624 10625 10627 10629 10631 10631 10632 10632 10631 10632 10632 10632 10633 10633 10633 10634 10634 10633 10633 10634 10635 10636 10638 10640 10640 10641 10642 10642 10641 10641 10641 10641 10643 10644 10645 10646 10647 10647 10646 10645 10645 10646 10645 10644 10642 10639 10635 10634 10634 10634 10633 10630 10632 10642 10644 10636 10635 10639 10637 10636 10638 10636 10634 10633 10632 10631 10630 10629 10628 10627 10627 10626 10624
10593 10594 10595 10597 10599 10600 10601 10602 10605 10607 10609 10611 10613 10615 10616 10616 10616 10618 10620 10622 10623 10624 10625 10625 10625 10626 10626 10626 10626 10626 10627 10627 10626 10626 10626 10626 10628 10629 10631 10633 10634 10634 10633 10632 10632 10631 10630 10632 10633 10634 10637 10639 10638 10636 10636 10637 10639 10639 10637 10636 10633 10629 10625 10624 10624 10622 10619 10622 10627 10629 10627 10627 10626 10625 10626 10626 10625 10624 10623 10622 10621 10619 10619 10618 10617 10616 10615 10614
10584 10585 10587 10588 10590 10592 10593 10593 10595 10597 10600 10603 10605 10607 10607 10608 10608 10609 10611 10613 10614 10616 10617 10618 10618 10618 10618 10618 10618 10619 10619 10619 10619 10619 10619 10618 10619 10620 10622 10624 10625 10625 10625 10623 10622 10622 10621 10621 10622 10623 10626 10630 10628 10625 10626 10627 10629 10631 10630 10628 10625 10620 10617 10617 10618 10615 10611 10611 10613 10614 10616 10617 10615 10614 10615 10614 10613 10612 10611 10611 10610 10609 10608 10607 10606 10605 10604 10603
10574 10575 10577 10579 10580 10583 10584 10585 10586 10587 10590 10592 10594 10597 10598 10598 10600 10601 10602 10603 10605 10607 10608 10609 10609 10610 10610 10610 10610 10610 10611 10612 10612 10612 10612 10611 10611 10612 10613 10615 10616 10616 10616 10614 10613 10613 10611 10611 10612 10611 10615 10621 10618 10613 10614 10614 10617 10622 10622 10619 10614 10610 10609 10610 10610 10608 10605 10603 10602 10603 10606 10606 10605 10604 10603 10603 10602 10601 10599 10598 10597 10597 10597 10595 10594 10592 10591 10590
10564 10565 10567 10568 10570 10572 10574 10575 10577 10579 10581 10581 10583 10585 10587 10588 10591 10592 10593 10594 10596 10597 10599 10600 10600 10601 10601 10601 10602 10602 10603 10604 10604 10604 10604 10604 10604 10604 10604 10606 10607 10607 10606 10604 10604 10604 10602 10602 10602 10600 10605 10611 10609 10604 10603 10602 10607 10613 10610 10605 10603 10600 10599 10599 10598 10598 10596 10594 10594 10594 10595 10595 10594 10594 10593 10592 10591 10590 10589 10588 10587 10586 10585 10583 10581 10580 10578 10577